Location: Sceptre
(50.8619°N, 109.2670°W)
Time: 10:36:01
(UTC+00:00)

DOVE 4 - Visible Passes

Search period start: 29 June 2022 00:00
Search period end: 09 July 2022 00:00
Orbit: 586 x 798 km, 97.8° (Epoch: 24 June)

Date Brightness Start Highest point End Pass type
(mag) Time Alt. Az. Time Alt. Az. Time Alt. Az.
29 Jun ? 06:17:31 10° NNE 06:21:59 34° E 06:24:37 21° SE visible
29 Jun ? 07:55:05 10° N 07:59:35 39° WNW 08:03:17 15° SW visible
30 Jun ? 05:21:43 10° ENE 05:23:28 12° E 05:25:14 10° ESE visible
30 Jun ? 06:56:53 10° NNE 07:01:49 74° ESE 07:04:45 26° S visible
30 Jun ? 08:35:23 10° NNW 08:38:56 20° WNW 08:42:36 10° WSW visible
01 Jul ? 05:59:31 10° NE 06:03:37 25° E 06:06:12 17° SE visible
01 Jul ? 07:36:38 10° N 07:41:27 54° WNW 07:44:53 20° SW visible
01 Jul ? 09:16:55 10° NW 09:18:04 11° NW 09:19:14 10° WNW visible
02 Jul ? 06:38:40 10° NNE 06:43:32 52° E 06:46:19 25° SSE visible
02 Jul ? 08:16:43 10° N 08:20:53 27° WNW 08:25:00 11° WSW visible
03 Jul ? 05:41:43 10° NE 05:45:12 18° E 05:47:46 13° ESE visible
03 Jul ? 07:18:15 10° N 07:23:15 75° WNW 07:26:26 24° SSW visible
03 Jul ? 08:57:23 10° NNW 09:00:06 15° NW 09:02:51 10° W visible
04 Jul ? 06:20:31 10° NNE 06:25:12 38° E 06:27:52 23° SSE visible
04 Jul ? 07:58:10 10° N 08:02:45 37° WNW 08:06:33 15° SW visible
05 Jul ? 05:24:18 10° ENE 05:26:42 13° E 05:29:08 10° ESE visible
05 Jul ? 06:59:56 10° NNE 07:05:00 79° ESE 07:07:59 26° S visible
05 Jul ? 08:38:29 10° NNW 08:42:03 20° WNW 08:45:43 10° WSW visible
06 Jul ? 06:02:28 10° NE 06:06:49 28° E 06:09:24 19° SE visible
06 Jul ? 07:39:42 10° N 07:44:36 51° WNW 07:48:04 20° SW visible
06 Jul ? 09:20:09 10° NW 09:21:08 11° NW 09:22:08 10° WNW visible
07 Jul ? 06:41:40 10° NNE 06:46:43 57° E 06:49:29 27° S visible
07 Jul ? 08:19:48 10° N 08:23:59 26° WNW 08:28:10 10° WSW visible
08 Jul ? 05:44:35 10° NE 05:48:22 20° E 05:50:54 15° SE visible
08 Jul ? 07:21:17 10° N 07:26:23 71° WNW 07:29:35 24° SSW visible
08 Jul ? 09:00:29 10° NNW 09:03:09 14° NW 09:05:51 10° W visible
